Hourly Data Report for October 06, 2015

All times are specified in Local Standard Time (LST). Add 1 hour to adjust for Daylight Saving Time where and when it is observed.

ST LEONARD CS
NEW BRUNSWICK

47°09'28.050" N
67°49'55.014" W
245.00 m
810I001
71019
WIY

Download Data

Hourly Data (October 2015)
Hourly Data Report for October 6, 2015
Temp Definition
°C
Dew Point Temp Definition
°C
Rel Hum Definition
%
Wind Dir Definition
10's deg

Wind Spd Definition
km/h
Visibility Definition
km
Stn Press Definition
kPa
Hmdx Definition


Wind Chill Definition


Weather Definition


TIME
00:00 4.3 3.5 95 36 4   98.91     LegendNANA
01:00 5.8 5.1 96 5 3   98.86     LegendNANA
02:00 5.5 4.6 94 0 1   98.83     LegendNANA
03:00 6.0 5.3 95 25 2   98.78     LegendNANA
04:00 5.9 5.1 95 35 2   98.74     LegendNANA
05:00 4.1 3.4 95 1 4   98.71     LegendNANA
06:00 2.9 2.5 97 36 4   98.69     LegendNANA
07:00 2.7 2.3 97 34 4   98.68     LegendNANA
08:00 5.2 4.2 93 33 3   98.67     LegendNANA
09:00 8.8 6.5 85 32 3   98.65     LegendNANA
10:00 11.1 5.9 70 28 5   98.64     LegendNANA
11:00 13.4 3.4 51 30 9   98.58     LegendNANA
12:00 14.3 3.2 47 29 8   98.51     LegendNANA
13:00 14.8 3.3 46 28 8   98.45     LegendNANA
14:00 14.5 4.6 52 30 11   98.38     LegendNANA
15:00 14.0 4.9 54 27 11   98.36     LegendNANA
16:00 13.7 5.7 59 28 12   98.33     LegendNANA
17:00 12.7 5.0 59 30 11   98.32     LegendNANA
18:00 11.7 5.7 67 28 7   98.29     LegendNANA
19:00 11.1 5.8 70 31 6   98.28     LegendNANA
20:00 10.3 6.0 75 29 9   98.28     LegendNANA
21:00 10.2 6.2 76 27 6   98.24     LegendNANA
22:00 9.5 6.4 81 23 5   98.22     LegendNANA
23:00 9.2 6.1 81 28 6   98.20     LegendNANA

Notes on Data Quality.

Legend

  • E = Estimated
  • M = Missing
  • NA = Not Available
  • ‡ = Partner data that is not subject to review by the National Climate Archives
Date modified: